• In Lithuania
  • List of Countries
  • For 7 days
  • Water Temperature
  • Satellite Maps
  • Weather Map
  • Weather Widgets
  • user-avatar
    Login

    Hourly Weather San Miguel de Tucumán

    Today, 11 December, Monday

    Time Temperature Precipitation Wind Pressure Humidity
    00:00 +27°C° 0.1 mm 1 mps 720 mmHg 48%
    01:00 +26°C° 0.1 mm 1 mps 720 mmHg 49%
    02:00 +26°C° 0 mm 1 mps 720 mmHg 50%
    03:00 +26°C° 0.1 mm 1 mps 720 mmHg 51%
    04:00 +26°C° 0.1 mm 1 mps 721 mmHg 52%
    05:00 +25°C° 0.1 mm 1 mps 721 mmHg 53%
    06:00 +26°C° 0.1 mm 1 mps 721 mmHg 51%
    07:00 +27°C° 0.1 mm 2 mps 722 mmHg 48%
    08:00 +28°C° 0 mm 2 mps 723 mmHg 43%
    09:00 +29°C° 0 mm 2 mps 723 mmHg 41%
    10:00 +30°C° 0 mm 2 mps 722 mmHg 38%
    11:00 +31°C° 0 mm 2 mps 722 mmHg 35%
    12:00 +32°C° 0 mm 2 mps 721 mmHg 34%
    13:00 +34°C° 0 mm 2 mps 721 mmHg 33%
    14:00 +34°C° 0 mm 2 mps 720 mmHg 33%
    15:00 +34°C° 0 mm 2 mps 719 mmHg 34%
    16:00 +34°C° 0 mm 2 mps 719 mmHg 35%
    17:00 +34°C° 0 mm 2 mps 718 mmHg 36%
    18:00 +31°C° 0 mm 2 mps 718 mmHg 40%
    19:00 +29°C° 0 mm 1 mps 718 mmHg 45%
    20:00 +27°C° 0 mm 1 mps 718 mmHg 50%
    21:00 +27°C° 0 mm 1 mps 718 mmHg 50%
    22:00 +26°C° 0 mm 1 mps 719 mmHg 51%
    23:00 +26°C° 0 mm 1 mps 719 mmHg 51%

    Tomorrow, 12 December, Tuesday

    Time Temperature Precipitation Wind Pressure Humidity
    00:00 +26°C° 0 mm 1 mps 719 mmHg 53%
    01:00 +25°C° 0 mm 1 mps 718 mmHg 54%
    02:00 +25°C° 0 mm 1 mps 718 mmHg 56%
    03:00 +24°C° 0 mm 1 mps 717 mmHg 57%
    04:00 +24°C° 0 mm 1 mps 717 mmHg 58%
    05:00 +23°C° 0 mm 1 mps 717 mmHg 58%
    06:00 +25°C° 0 mm 1 mps 718 mmHg 54%
    07:00 +27°C° 0 mm 1 mps 718 mmHg 49%
    08:00 +29°C° 0 mm 1 mps 718 mmHg 44%
    09:00 +31°C° 0 mm 2 mps 718 mmHg 40%
    10:00 +34°C° 0 mm 3 mps 718 mmHg 36%
    11:00 +36°C° 0 mm 3 mps 718 mmHg 32%
    12:00 +37°C° 0 mm 3 mps 717 mmHg 31%
    13:00 +37°C° 0 mm 4 mps 717 mmHg 30%
    14:00 +38°C° 0 mm 4 mps 716 mmHg 29%
    15:00 +38°C° 0 mm 4 mps 716 mmHg 30%
    16:00 +38°C° 0 mm 4 mps 715 mmHg 30%
    17:00 +38°C° 0 mm 4 mps 715 mmHg 31%
    18:00 +35°C° 0 mm 3 mps 715 mmHg 37%
    19:00 +33°C° 0 mm 3 mps 715 mmHg 42%
    20:00 +29°C° 0 mm 2 mps 715 mmHg 48%
    21:00 +29°C° 0 mm 2 mps 716 mmHg 49%
    22:00 +28°C° 0 mm 2 mps 716 mmHg 50%
    23:00 +28°C° 0 mm 2 mps 716 mmHg 51%

    Day after tomorrow, 13 December, Wednesday

    Time Temperature Precipitation Wind Pressure Humidity
    00:00 +27°C° 0 mm 2 mps 716 mmHg 52%
    01:00 +27°C° 0 mm 2 mps 715 mmHg 53%
    02:00 +26°C° 0 mm 2 mps 715 mmHg 54%
    03:00 +26°C° 0 mm 1 mps 715 mmHg 54%
    04:00 +26°C° 0 mm 1 mps 714 mmHg 55%
    05:00 +25°C° 0 mm 1 mps 714 mmHg 56%
    06:00 +27°C° 0 mm 1 mps 715 mmHg 51%
    07:00 +29°C° 0 mm 1 mps 716 mmHg 47%
    08:00 +31°C° 0 mm 1 mps 716 mmHg 43%
    09:00 +35°C° 0 mm 2 mps 716 mmHg 38%
    10:00 +37°C° 0 mm 2 mps 717 mmHg 34%
    11:00 +39°C° 0 mm 3 mps 717 mmHg 29%
    12:00 +40°C° 0 mm 3 mps 717 mmHg 28%
    13:00 +42°C° 0 mm 3 mps 716 mmHg 27%
    14:00 +43°C° 0 mm 3 mps 716 mmHg 25%
    15:00 +41°C° 0 mm 2 mps 716 mmHg 27%
    16:00 +41°C° 0 mm 2 mps 715 mmHg 29%
    17:00 +40°C° 0 mm 2 mps 715 mmHg 30%
    18:00 +38°C° 0 mm 2 mps 716 mmHg 37%
    19:00 +35°C° 0 mm 2 mps 716 mmHg 43%
    20:00 +32°C° 0 mm 2 mps 717 mmHg 49%
    21:00 +31°C° 0.1 mm 2 mps 717 mmHg 50%
    22:00 +31°C° 0.1 mm 2 mps 718 mmHg 51%
    23:00 +30°C° 0.1 mm 2 mps 719 mmHg 51%

    14 December, Thursday

    Time Temperature Precipitation Wind Pressure Humidity
    00:00 +30°C° 0.1 mm 2 mps 719 mmHg 51%
    01:00 +29°C° 0.1 mm 2 mps 719 mmHg 52%
    02:00 +29°C° 0.1 mm 2 mps 719 mmHg 52%
    03:00 +28°C° 0.1 mm 2 mps 719 mmHg 54%
    04:00 +28°C° 0.1 mm 2 mps 719 mmHg 55%
    05:00 +27°C° 0.1 mm 2 mps 720 mmHg 57%
    06:00 +27°C° 0 mm 2 mps 720 mmHg 57%
    07:00 +28°C° 0 mm 3 mps 721 mmHg 57%
    08:00 +28°C° 0 mm 3 mps 722 mmHg 57%
    09:00 +29°C° 0 mm 3 mps 722 mmHg 54%
    10:00 +31°C° 0 mm 3 mps 721 mmHg 50%
    11:00 +33°C° 0 mm 3 mps 721 mmHg 46%
    12:00 +34°C° 0 mm 3 mps 721 mmHg 45%
    13:00 +36°C° 0 mm 3 mps 721 mmHg 43%
    14:00 +37°C° 0 mm 3 mps 720 mmHg 41%
    15:00 +36°C° 0 mm 2 mps 720 mmHg 42%
    16:00 +36°C° 0 mm 2 mps 719 mmHg 43%
    17:00 +36°C° 0 mm 2 mps 719 mmHg 44%
    18:00 +33°C° 0.3 mm 1 mps 719 mmHg 50%
    19:00 +31°C° 0.3 mm 1 mps 720 mmHg 56%
    20:00 +29°C° 0.3 mm 1 mps 720 mmHg 63%
    21:00 +29°C° 0.2 mm 1 mps 720 mmHg 64%
    22:00 +28°C° 0.2 mm 1 mps 721 mmHg 65%
    23:00 +28°C° 0.2 mm 2 mps 721 mmHg 66%

    15 December, Friday

    Time Temperature Precipitation Wind Pressure Humidity
    00:00 +28°C° 0.1 mm 1 mps 721 mmHg 66%
    01:00 +27°C° 0.1 mm 1 mps 720 mmHg 66%
    02:00 +27°C° 0.1 mm 1 mps 720 mmHg 66%
    03:00 +27°C° 0.1 mm 1 mps 720 mmHg 67%
    04:00 +27°C° 0.1 mm 1 mps 720 mmHg 67%
    05:00 +26°C° 0.1 mm 1 mps 719 mmHg 67%
    06:00 +28°C° 0.1 mm 1 mps 720 mmHg 62%
    07:00 +30°C° 0.1 mm 1 mps 720 mmHg 57%
    08:00 +32°C° 0.1 mm 1 mps 721 mmHg 52%
    09:00 +34°C° 0 mm 1 mps 720 mmHg 46%
    10:00 +37°C° 0 mm 2 mps 720 mmHg 41%
    11:00 +38°C° 0 mm 2 mps 720 mmHg 36%
    12:00 +39°C° 0 mm 3 mps 719 mmHg 34%
    13:00 +40°C° 0 mm 3 mps 718 mmHg 32%
    14:00 +42°C° 0 mm 3 mps 717 mmHg 31%
    15:00 +40°C° 0 mm 3 mps 716 mmHg 32%
    16:00 +40°C° 0 mm 3 mps 716 mmHg 33%
    17:00 +39°C° 0 mm 3 mps 715 mmHg 34%
    18:00 +37°C° 0 mm 3 mps 715 mmHg 38%
    19:00 +36°C° 0 mm 2 mps 715 mmHg 41%
    20:00 +34°C° 0 mm 2 mps 715 mmHg 45%
    21:00 +32°C° 0 mm 2 mps 716 mmHg 45%
    22:00 +32°C° 0 mm 2 mps 716 mmHg 46%
    23:00 +31°C° 0 mm 2 mps 716 mmHg 46%

    16 December, Saturday

    Time Temperature Precipitation Wind Pressure Humidity
    00:00 +31°C° 0 mm 2 mps 716 mmHg 47%
    01:00 +30°C° 0 mm 2 mps 715 mmHg 48%
    02:00 +29°C° 0 mm 3 mps 714 mmHg 49%
    03:00 +29°C° 0 mm 3 mps 714 mmHg 49%
    04:00 +29°C° 0 mm 3 mps 714 mmHg 49%
    05:00 +28°C° 0 mm 3 mps 714 mmHg 50%
    06:00 +30°C° 0 mm 3 mps 714 mmHg 46%
    07:00 +33°C° 0 mm 4 mps 715 mmHg 43%
    08:00 +35°C° 0 mm 5 mps 715 mmHg 39%
    09:00 +37°C° 0 mm 5 mps 715 mmHg 36%
    10:00 +40°C° 0 mm 6 mps 714 mmHg 32%
    11:00 +41°C° 0 mm 6 mps 714 mmHg 29%
    12:00 +42°C° 0 mm 6 mps 713 mmHg 28%
    13:00 +44°C° 0 mm 6 mps 712 mmHg 27%
    14:00 +45°C° 0 mm 5 mps 712 mmHg 26%
    15:00 +43°C° 0 mm 5 mps 711 mmHg 27%
    16:00 +43°C° 0 mm 5 mps 711 mmHg 28%
    17:00 +42°C° 0 mm 4 mps 711 mmHg 29%
    18:00 +40°C° 0.1 mm 4 mps 711 mmHg 33%
    19:00 +37°C° 0.1 mm 3 mps 712 mmHg 38%
    20:00 +35°C° 0.1 mm 2 mps 712 mmHg 42%
    21:00 +34°C° 0.1 mm 2 mps 713 mmHg 43%
    22:00 +34°C° 0.1 mm 2 mps 713 mmHg 44%
    23:00 +32°C° 0.1 mm 2 mps 714 mmHg 45%
    Show more